STARLINK-32360, 61007

Orbit data source: Space-Track

STARLINK-32360, 61007 is a payload satellite owned by SpaceX/Seattle (US) in LEO that was launched on Thu, 05 Sep 2024 UTC via an FALCON 9 launch vehicle from the Air Force Eastern Test Range (AFETR). Payload-class satellites include a variety of spacecraft equipped with specific instruments for various scientific and technological missions. These include communications satellites like Starlink; space stations such as the ISS; scientific satellites like the Hubble; Earth observation satellites from companies like Planet Labs, Umbra, and HawkEye 360; GPS; miniature CubeSats for education and research; and military/defense satellites.

Loading next visibility...
Identifier
61007, 2024-158T
Orbit
LEO
Country
Flag of USUS
Related business
Manufacturer
SpaceX/Seattle
Mission
Operational Commercial Communications
Bus & Motor
STARLINK V2M, Unknown motor
Mass
730 kg wet, ~700 kg dry
Launch date (UTC)
2024-09-05 (1 year ago)
Launch vehicle
FALCON 9
Launch site
Air Force Eastern Test Range (AFETR)
Object type
Payload
Rocket body
Debris
Shape & HBR
Box + 2 Pan, 17.7 m
Radar Cross Section
33.884 m², Large (>1 m²)

Expand to show TLE details & history
Last TLE update: 16 hours ago

TLE from 16 hours ago
0 STARLINK-32360
1 61007U 24158T   25286.94208736 -.00000056  00000-0  10249-4 0  9998
2 61007  53.1612  11.8586 0001090  98.6946 261.4178 15.30190801 63326
Epoch: 2025-10-13T22:36Z
TLE epoch observation values (Epoch: 2025-10-13T22:36:36.347Z)
Latitude
-0.00007°
Longitude
9.96947°
Altitude
476.254 km
Speed
7.629 km/s
True Right ascension
00h 47m 26s
True Declination
0° 00' 00"
Sunlit
Object was in full shadow at epoch
Visualization orbit readout
Latitude
Unknown
Longitude
Unknown
Altitude
Unknown
Speed
Unknown
Apparent Right ascension
Unknown
Apparent Declination
Unknown
Sunlit
N/A
Visualization observer readout
Local Sidereal Time
09:31:36
Azimuth
Unknown
Elevation
Unknown
Doppler factor
Unknown
Orbital elements
Apogee altitude
476.246 km
Perigee altitude
474.752 km
Semi-major axis
6,853.636 km
Eccentricity
0.00011
Inclination
53.1612°
RAAN
11.8586°
Arg. of periapsis
98.6946°
True anomaly
261.40545°
Mean anomaly
261.4178°
Eccentric anomaly
261.41162°
Mean motion
3.82527 °/min
Orbital period
94.11 mins
BSTAR
0.000010249
Loading maneuver chart data...
Computing Atmospheric mass density...
Loading historical data...
Loading historical data...
Loading historical data...
Loading historical data...
Loading historical data...
Loading historical data...
Loading historical data...

Documentation

Showing up to 5 results
|